CW8078 Weather Reports


time (UTC)temp
C
wind
direction
speed
KPH
gust
KPH
rain 1hr
cm
rain 24hr
cm
rain mn
cm
humidity
%
barometer
mb
20260508201803 20 308 0.0 0.0 0.00 0.00 0.00 62 1007.8
20260508201303 20 242 0.0 0.0 0.00 0.00 0.00 64 1007.9
20260508200804 20 202 0.0 0.0 0.00 0.00 0.00 67 1008.0
20260508200304 20 182 0.0 0.0 0.00 0.00 0.00 66 1008.0
20260508194304 20 208 0.0 0.0 0.00 0.00 0.00 67 1008.3
20260508193803 20 208 0.0 0.0 0.00 0.00 0.00 67 1008.2
20260508193303 19 208 0.0 0.0 0.00 0.00 0.00 64 1007.8
20260508191803 19 187 0.0 0.0 0.00 0.00 0.00 65 1008.4
20260508191303 18 192 0.0 0.0 0.00 0.00 0.00 68 1008.5
20260508190804 18 192 0.0 0.0 0.00 0.00 0.00 69 1008.5
20260508184803 17 163 0.0 0.0 0.00 0.00 0.00 70 1008.5
20260508184303 17 163 0.0 0.0 0.00 0.00 0.00 71 1008.6
20260508183803 17 163 0.0 0.0 0.00 0.00 0.00 70 1008.5
20260508183303 17 163 0.0 0.0 0.00 0.00 0.00 70 1008.4
20260508181803 17 163 0.0 0.0 0.00 0.00 0.00 70 1008.4
20260508181303 17 163 0.0 0.0 0.00 0.00 0.00 70 1008.3
20260508180804 17 163 0.0 0.0 0.00 0.00 0.00 70 1008.3
20260508174804 17 164 0.0 0.0 0.00 0.00 0.00 71 1008.5
20260508174304 17 166 0.0 0.0 0.00 0.00 0.00 69 1008.5
20260508173803 17 161 0.0 0.0 0.00 0.00 0.00 70 1008.5
20260508173303 17 161 0.0 4.8 0.00 0.00 0.00 69 1008.6
20260508171803 16 163 0.0 3.2 0.00 0.00 0.00 71 1008.7
20260508171303 16 152 0.0 0.0 0.00 0.00 0.00 70 1008.8
20260508170803 16 180 0.0 0.0 0.00 0.00 0.00 72 1008.9
20260508170303 15 180 0.0 0.0 0.00 0.00 0.00 73 1009.1
20260508164804 16 180 0.0 0.0 0.00 0.00 0.00 71 1009.5
20260508164304 15 180 0.0 0.0 0.00 0.00 0.00 72 1009.5
20260508163304 15 180 0.0 0.0 0.00 0.00 0.00 72 1009.5
20260508160804 15 180 0.0 0.0 0.00 0.00 0.00 75 1009.9
20260508160303 15 180 0.0 0.0 0.00 0.00 0.00 73 1010.0
20260508154803 15 180 0.0 0.0 0.00 0.00 0.00 74 1010.1
20260508154303 15 180 0.0 0.0 0.00 0.00 0.00 74 1010.3
20260508153803 15 180 0.0 0.0 0.00 0.00 0.00 74 1010.3
20260508153303 14 180 0.0 0.0 0.00 0.00 0.00 75 1010.3
20260508151804 14 180 0.0 0.0 0.00 0.00 0.00 75 1010.3
20260508151303 13 180 0.0 0.0 0.00 0.00 0.00 76 1010.4
20260508150304 13 180 0.0 0.0 0.00 0.00 0.00 75 1010.3
20260508144304 13 181 0.0 0.0 0.00 0.00 0.00 76 1010.2
20260508143803 13 181 0.0 0.0 0.00 0.00 0.00 76 1010.3
20260508143303 13 181 0.0 0.0 0.00 0.00 0.00 76 1010.2
20260508141802 13 142 0.0 0.0 0.00 0.00 0.00 76 1010.4
20260508141302 13 142 0.0 0.0 0.00 0.00 0.00 77 1010.4
20260508140802 13 142 0.0 0.0 0.00 0.00 0.00 76 1010.4
20260508134802 12 142 0.0 0.0 0.00 0.00 0.00 79 1010.6
20260508134302 12 142 0.0 0.0 0.00 0.00 0.00 80 1010.7
20260508133802 12 142 0.0 0.0 0.00 0.00 0.00 80 1010.8
20260508133302 12 142 0.0 0.0 0.00 0.00 0.00 80 1010.9
20260508131802 11 142 0.0 0.0 0.00 0.00 0.00 80 1010.6
20260508131302 11 142 0.0 0.0 0.00 0.00 0.00 82 1010.5
20260508130802 11 142 0.0 0.0 0.00 0.00 0.00 80 1010.5
20260508130302 11 142 0.0 0.0 0.00 0.00 0.00 80 1010.5
20260508124802 11 142 0.0 0.0 0.00 0.00 0.00 80 1010.4
20260508124302 11 142 0.0 0.0 0.00 0.00 0.00 79 1010.4
20260508123802 11 142 0.0 0.0 0.00 0.00 0.00 81 1010.4
20260508121302 10 173 0.0 0.0 0.00 0.00 0.00 81 1010.2
20260508120802 10 171 0.0 0.0 0.00 0.00 0.00 80 1010.1
20260508120302 10 161 0.0 0.0 0.00 0.00 0.00 80 1009.9
20260508114802 10 157 0.0 0.0 0.00 0.00 0.00 82 1009.9
20260508114302 9 157 0.0 0.0 0.00 0.00 0.00 82 1009.9
20260508113802 9 157 0.0 0.0 0.00 0.00 0.00 82 1009.9
20260508113303 9 157 0.0 0.0 0.00 0.00 0.00 82 1009.9
20260508111302 9 157 0.0 0.0 0.00 0.00 0.00 82 1009.8
20260508110802 9 157 0.0 0.0 0.00 0.00 0.00 82 1009.8
20260508110302 9 157 0.0 0.0 0.00 0.00 0.00 82 1009.8
20260508104802 9 157 0.0 0.0 0.00 0.00 0.00 81 1009.7
20260508104302 9 157 0.0 0.0 0.00 0.00 0.00 82 1009.6
20260508103802 9 157 0.0 0.0 0.00 0.00 0.00 82 1009.8
20260508103302 9 157 0.0 0.0 0.00 0.00 0.00 82 1009.7
20260508101802 9 157 0.0 0.0 0.00 0.00 0.00 82 1009.7
20260508101302 10 157 0.0 0.0 0.00 0.00 0.00 82 1009.7
20260508100802 10 157 0.0 0.0 0.00 0.00 0.00 81 1009.7
20260508100302 10 157 0.0 0.0 0.00 0.00 0.00 81 1009.7
20260508094802 10 157 0.0 0.0 0.00 0.00 0.00 81 1009.7
20260508094302 10 157 0.0 0.0 0.00 0.00 0.00 81 1009.8
20260508093802 10 158 0.0 0.0 0.00 0.00 0.00 81 1009.8
20260508093302 10 158 0.0 0.0 0.00 0.00 0.00 82 1009.8
20260508091802 10 158 0.0 0.0 0.00 0.00 0.00 82 1009.8
20260508090802 10 158 0.0 0.0 0.00 0.00 0.00 83 1009.8
20260508090303 9 158 0.0 0.0 0.00 0.00 0.00 84 1009.8
20260508083802 8 158 0.0 0.0 0.00 0.00 0.00 86 1009.9
20260508081802 8 158 0.0 0.0 0.00 0.00 0.00 87 1010.1
20260508081302 8 158 0.0 0.0 0.00 0.00 0.00 86 1010.2
20260508080802 8 158 0.0 0.0 0.00 0.00 0.00 86 1010.3
20260508080302 8 158 0.0 0.0 0.00 0.00 0.00 86 1010.3
20260508074802 8 158 0.0 0.0 0.00 0.00 0.00 86 1010.3
20260508074302 8 158 0.0 0.0 0.00 0.00 0.00 86 1010.3
20260508073802 8 158 0.0 0.0 0.00 0.00 0.00 86 1010.4
20260508073302 8 158 0.0 0.0 0.00 0.00 0.00 86 1010.5
20260508071802 8 158 0.0 0.0 0.00 0.00 0.00 86 1010.6
20260508071302 8 158 0.0 0.0 0.00 0.00 0.00 87 1010.7
20260508070802 8 158 0.0 0.0 0.00 0.00 0.00 87 1010.8
20260508070302 8 158 0.0 0.0 0.00 0.00 0.00 87 1010.8
20260508064802 8 158 0.0 0.0 0.00 0.00 0.00 86 1010.8
20260508064302 8 158 0.0 0.0 0.00 0.00 0.00 86 1010.9
20260508063802 8 158 0.0 0.0 0.00 0.00 0.00 86 1011.0
20260508063302 8 158 0.0 0.0 0.00 0.00 0.00 86 1011.1
20260508061302 9 158 0.0 0.0 0.00 0.00 0.00 86 1011.3
20260508060802 9 158 0.0 0.0 0.00 0.00 0.00 86 1011.4
20260508060302 9 158 0.0 0.0 0.00 0.00 0.00 85 1011.4
20260508054802 9 158 0.0 0.0 0.00 0.00 0.00 84 1011.4
20260508054302 9 158 0.0 0.0 0.00 0.00 0.00 84 1011.5
20260508053302 9 158 0.0 0.0 0.00 0.00 0.00 83 1011.6
20260508051803 10 158 0.0 0.0 0.00 0.00 0.00 82 1011.6
20260508051302 10 158 0.0 0.0 0.00 0.00 0.00 81 1011.6
20260508050802 10 158 0.0 0.0 0.00 0.00 0.00 80 1011.7
20260508050303 10 158 0.0 0.0 0.00 0.00 0.00 80 1011.7
20260508044803 11 158 0.0 0.0 0.00 0.00 0.00 79 1011.8
20260508043803 11 158 0.0 0.0 0.00 0.00 0.00 77 1011.8
20260508043303 11 158 0.0 0.0 0.00 0.00 0.00 76 1011.8
20260508041803 11 158 0.0 0.0 0.00 0.00 0.00 76 1011.9
20260508041303 12 158 0.0 0.0 0.00 0.00 0.00 76 1011.9
20260508040802 12 158 0.0 0.0 0.00 0.00 0.00 75 1011.8
20260508040303 12 158 0.0 0.0 0.00 0.00 0.00 75 1011.9
20260508034802 11 158 0.0 0.0 0.00 0.00 0.00 77 1011.9
20260508034302 11 158 0.0 0.0 0.00 0.00 0.00 78 1011.8
20260508033803 11 158 0.0 0.0 0.00 0.00 0.00 78 1011.8
20260508033303 11 158 0.0 0.0 0.00 0.00 0.00 79 1011.8
20260508031802 11 158 0.0 0.0 0.00 0.00 0.00 80 1011.8
20260508031302 11 158 0.0 0.0 0.00 0.00 0.00 80 1011.8
20260508030802 11 158 0.0 0.0 0.00 0.00 0.00 78 1011.8
20260508030302 11 158 0.0 0.0 0.00 0.00 0.00 78 1011.8
20260508024803 11 158 0.0 0.0 0.00 0.00 0.00 77 1011.7
20260508024303 11 158 0.0 0.0 0.00 0.00 0.00 78 1011.7
20260508023802 11 158 0.0 0.0 0.00 0.00 0.00 77 1011.7
20260508023303 11 158 0.0 0.0 0.00 0.00 0.00 77 1011.7
20260508021302 12 158 0.0 0.0 0.00 0.00 0.00 74 1011.6
20260508020802 12 158 0.0 0.0 0.00 0.00 0.00 72 1011.6
20260508020303 12 158 0.0 0.0 0.00 0.00 0.00 73 1011.5
20260508014802 13 158 0.0 0.0 0.00 0.00 0.00 69 1011.4
20260508014302 13 158 0.0 0.0 0.00 0.00 0.00 68 1011.4
20260508013803 13 158 0.0 0.0 0.00 0.00 0.00 67 1011.4
20260508013303 13 158 0.0 0.0 0.00 0.00 0.00 67 1011.4
20260508011802 14 158 0.0 0.0 0.00 0.00 0.00 65 1011.3
20260508011302 14 158 0.0 0.0 0.00 0.00 0.00 65 1011.4
20260508010803 15 158 0.0 0.0 0.00 0.00 0.00 65 1011.4
20260508010303 15 158 0.0 0.0 0.00 0.00 0.00 63 1011.3
20260508004802 15 158 0.0 0.0 0.00 0.00 0.00 60 1011.1
20260508004302 16 158 0.0 0.0 0.00 0.00 0.00 59 1011.1
20260508003803 16 158 0.0 0.0 0.00 0.00 0.00 60 1011.1
20260508003303 16 158 0.0 1.6 0.00 0.00 0.00 58 1011.0
20260508001802 17 158 0.0 0.0 0.00 0.00 0.00 56 1010.9
20260508000803 17 158 0.0 0.0 0.00 0.00 0.00 53 1010.8
20260508000304 17 158 0.0 1.6 0.00 0.00 0.00 51 1010.8
20260507233803 18 201 0.0 0.0 0.00 0.00 0.00 47 1010.8
20260507233302 18 201 0.0 4.8 0.00 0.00 0.00 48 1010.9
20260507231802 18 201 0.0 1.6 0.00 0.00 0.00 49 1010.9
20260507231303 18 163 0.0 0.0 0.00 0.00 0.00 47 1010.9
20260507230302 18 225 0.0 1.6 0.00 0.00 0.00 50 1011.1
20260507224802 18 225 0.0 0.0 0.00 0.00 0.00 48 1011.3
20260507224302 18 216 0.0 0.0 0.00 0.00 0.00 46 1011.1
20260507223802 18 136 0.0 0.0 0.00 0.00 0.00 45 1011.3
20260507223303 18 198 0.0 8.0 0.00 0.00 0.00 46 1011.3
20260507221803 19 204 0.0 0.0 0.00 0.00 0.00 47 1011.4
20260507221303 18 194 0.0 0.0 0.00 0.00 0.00 47 1011.5
20260507220303 19 165 0.0 8.0 0.00 0.00 0.00 46 1011.4
20260507214802 18 180 0.0 0.0 0.00 0.00 0.00 47 1011.5
20260507213803 18 217 0.0 3.2 0.00 0.00 0.00 45 1011.5
20260507213303 18 212 0.0 3.2 0.00 0.00 0.00 46 1011.5
20260507211802 19 205 0.0 0.0 0.00 0.00 0.00 47 1011.6
20260507211303 19 194 0.0 0.0 0.00 0.00 0.00 48 1011.8
20260507210802 19 182 1.6 4.8 0.00 0.00 0.00 46 1011.8
20260507210303 18 204 0.0 3.2 0.00 0.00 0.00 46 1011.8
20260507204802 18 218 0.0 0.0 0.00 0.00 0.00 47 1012.2
20260507204302 18 211 0.0 4.8 0.00 0.00 0.00 46 1012.2
20260507203303 18 207 0.0 4.8 0.00 0.00 0.00 46 1012.4